Content
SEND FEEDBACK

Daily
Averages
Monthly
Summary
Greece

IOANNINA, GREECE


Home > Europe > Greece
Elevation: 1588 feet     Latitude: 39 40N     Longitude: 020 51E

WEATHER
 
SELECT A DAY
Number of Records: 283,164;   Date Range: 7/1/96 - 7/20/14
 
SHARE

PRINT THIS DATA

[ ← Previous Day ]
WEATHER ALMANAC - FEBRUARY 20, 2013
[ Next Day → ]
[ °C ]   °F
Weather ElementAverageHighLow
Temperature48 °F57.2 °F (1:50 pm)39 °F (8:00 am)
Dewpoint44.1 °F48.2 °F (12:50 pm)37.4 °F (8:50 am)
Humidity86.9 %100 % (5:50 am)65 % (2:00 pm)
Barometer29.99 in30.04 in (9:50 am)29.89 in (12:50 am)
Wind Speed2.4 mph9.2 mph (3:50 pm)
Weather ElementAverage
Visibility6.4 mi
Wind DirectionENE (69.1 °)

Weather ElementTotal
Precipitation---
Heating Degree Days16.9 (Base 65)
Averaged from 49 records on February 20, 2013
WEATHER CONDITIONS BREAKOUT
WIND DIRECTION BREAKOUT
WEATHER BY HOUR - FEBRUARY 20, 2013
[ °C ]   °F
Local TimeTemperatureDewpointHumidityBarometerVisibilityWind DirectionWind SpeedGust SpeedPrecipitationEventsConditions
12:50 AM44.6 °F42.8 °F93 %29.89 in6.2 miNNW (330°)5.8 mphScattered Clouds
1:20 AM44.6 °F42.8 °F93 %29.89 in6.2 miNNW (330°)5.8 mphScattered Clouds
2:20 AM44.6 °F42.8 °F93 %29.92 in6.2 miCalmScattered Clouds
2:50 AM44.6 °F42.8 °F93 %29.92 in6.2 miCalmScattered Clouds
3:20 AM44.6 °F42.8 °F93 %29.92 in6.2 miCalmScattered Clouds
3:50 AM44.6 °F42.8 °F93 %29.95 in6.2 miCalmScattered Clouds
4:20 AM44.6 °F42.8 °F93 %29.95 in6.2 miCalmScattered Clouds
4:50 AM42.8 °F41.0 °F93 %29.95 in6.2 miCalmScattered Clouds
5:20 AM42.8 °F41.0 °F93 %29.95 in6.2 miCalmScattered Clouds
5:50 AM41.0 °F41.0 °F100 %29.98 in6.2 miCalmScattered Clouds
6:20 AM41.0 °F41.0 °F100 %29.98 in6.2 miCalmScattered Clouds
6:50 AM41.0 °F39.2 °F93 %29.98 in6.2 miCalmPartly Cloudy
7:20 AM41.0 °F39.2 °F93 %29.98 in6.2 miCalmPartly Cloudy
7:50 AM39.2 °F39.2 °F100 %29.98 in6.2 miCalmPartly Cloudy
8:00 AM39.0 °F38.0 °F96 %29.99 in12.0 miCalmScattered Clouds
8:20 AM39.2 °F39.2 °F100 %29.98 in6.2 miCalmPartly Cloudy
8:50 AM39.2 °F37.4 °F93 %30.01 in6.2 miCalmScattered Clouds
9:20 AM41.0 °F39.2 °F93 %30.01 in6.2 miCalmScattered Clouds
9:50 AM46.4 °F39.2 °F76 %30.04 in6.2 miCalmScattered Clouds
10:20 AM50.0 °F42.8 °F76 %30.04 in6.2 miCalmScattered Clouds
10:50 AM53.6 °F46.4 °F77 %30.04 in6.2 miSE (140°)5.8 mphScattered Clouds
11:20 AM53.6 °F46.4 °F77 %30.04 in6.2 miSE (130°)5.8 mphScattered Clouds
11:50 AM53.6 °F46.4 °F77 %30.04 in6.2 miSSE (150°)5.8 mphScattered Clouds
12:20 PM53.6 °F46.4 °F77 %30.04 in6.2 miSSE (160°)5.8 mphScattered Clouds
12:50 PM55.4 °F48.2 °F77 %30.04 in6.2 miSSE (160°)6.9 mphScattered Clouds
1:20 PM55.4 °F48.2 °F77 %30.04 in6.2 miSSE (160°)5.8 mphScattered Clouds
1:50 PM57.2 °F48.2 °F72 %30.01 in6.2 miSSE (160°)5.8 mphScattered Clouds
2:00 PM57.0 °F48.0 °F65 %30.03 in12.0 miSSE (160°)5.8 mphPartly Cloudy
2:20 PM57.2 °F48.2 °F72 %30.01 in6.2 miESE (120°)5.8 mphScattered Clouds
2:50 PM55.4 °F48.2 °F77 %30.01 in6.2 miSE (140°)5.8 mphScattered Clouds
3:20 PM55.4 °F48.2 °F77 %30.01 in6.2 miESE (120°)3.5 mphScattered Clouds
3:50 PM53.6 °F44.6 °F72 %30.01 in6.2 miSSE (150°)9.2 mphScattered Clouds
4:20 PM53.6 °F44.6 °F72 %30.01 in6.2 miSouth (170°)6.9 mphScattered Clouds
4:50 PM53.6 °F46.4 °F77 %29.98 in6.2 miSSE (150°)6.9 mphMostly Cloudy
5:20 PM53.6 °F46.4 °F77 %29.98 in6.2 miSSE (150°)6.9 mphMostly Cloudy
5:50 PM53.6 °F46.4 °F77 %29.98 in6.2 miSSE (160°)4.6 mphMostly Cloudy
6:20 PM53.6 °F46.4 °F77 %29.98 in6.2 miSSW (210°)5.8 mphMostly Cloudy
6:50 PM51.8 °F48.2 °F88 %29.98 in6.2 miVariable3.5 mphMostly Cloudy
7:20 PM50.0 °F46.4 °F87 %29.98 in6.2 miCalmMostly Cloudy
7:50 PM50.0 °F48.2 °F94 %29.98 in6.2 miCalmMostly Cloudy
8:00 PM50.0 °F47.0 °F88 %30.00 in6.0 miCalmPartly Cloudy
8:20 PM50.0 °F48.2 °F94 %29.98 in6.2 miCalmScattered Clouds
8:50 PM46.4 °F44.6 °F93 %29.98 in6.2 miCalmScattered Clouds
9:20 PM44.6 °F44.6 °F100 %29.98 in6.2 miCalmScattered Clouds
9:50 PM44.6 °F44.6 °F100 %30.01 in6.2 miCalmScattered Clouds
10:20 PM44.6 °F44.6 °F100 %30.01 in6.2 miCalmScattered Clouds
10:50 PM44.6 °F42.8 °F93 %30.01 in6.2 miCalmMostly Cloudy
11:20 PM44.6 °F42.8 °F93 %30.01 in6.2 miCalmMostly Cloudy
11:50 PM44.6 °F42.8 °F93 %29.98 in6.2 miCalmMostly Cloudy
Hourly data recorded from LGIO, located miles away from Ioannina, Greece







STORIES FROM OUR PARTNERS